Hourly Data Report for August 20, 2020

LYTTON RCS
BRITISH COLUMBIA
Current Station Operator: ECCC - MSC

50°13'28.000" N
121°34'55.000" W
225.00 m
1114746
71765
VLY

Download Data

Hourly Data (August 2020)
Hourly Data Report for August 20, 2020
TIME Temp Definition
°C
Dew Point Definition
°C
Rel Hum Definition
%
Wind Dir Definition
10's deg

Wind Spd Definition
km/h
Visibility Definition
km
Stn Press Definition
kPa
Hmdx Definition


Wind Chill Definition


Weather Definition


00:00 23.9 8.3 37 21 21   98.15     LegendNANA
01:00 23.1 9.9 43 20 23   98.12     LegendNANA
02:00 22.9 10.1 44 20 25   98.14     LegendNANA
03:00 22.2 10.9 49 20 20   98.19     LegendNANA
04:00 20.9 12.2 58 20 22   98.24     LegendNANA
05:00 18.1 14.5 80 19 27   98.30     LegendNANA
06:00 18.5 14.1 76 18 24   98.32     LegendNANA
07:00 18.8 13.5 71 19 26   98.31     LegendNANA
08:00 19.0 13.6 71 18 30   98.31     LegendNANA
09:00 20.1 13.3 65 19 22   98.34     LegendNANA
10:00 20.9 13.2 62 20 22   98.33     LegendNANA
11:00 23.3 12.6 51 19 26   98.29 26   LegendNANA
12:00 24.6 12.2 46 19 29   98.22 27   LegendNANA
13:00 26.8 11.1 37 19 32   98.16 29   LegendNANA
14:00 26.7 10.5 36 19 27   98.13 28   LegendNANA
15:00 26.2 10.3 37 19 25   98.10 28   LegendNANA
16:00 26.8 10.1 35 18 26   98.05 28   LegendNANA
17:00 26.5 9.3 34 18 28   98.01 27   LegendNANA
18:00 25.6 10.1 38 17 22   97.98 27   LegendNANA
19:00 25.2 10.4 39 16 18   97.96 27   LegendNANA
20:00 24.2 11.0 43 18 15   97.97 26   LegendNANA
21:00 24.1 11.3 45 17 18   97.94 26   LegendNANA
22:00 23.4 11.7 48 17 18   97.91 26   LegendNANA
23:00 22.4 12.5 53 19 14   97.89 25   LegendNANA

Notes on Data Quality.

Legend

  • E = Estimated
  • M = Missing
  • NA = Not Available*
  • [empty] = Indicates an unobserved value
Date modified: